| time (UTC) | temp C | wind direction | speed KPH | gust KPH | rain 1hr cm | rain 24hr cm | rain mn cm | humidity % | barometer mb |
| 20260506124440 | 15 | 68 | 12.9 | 14.5 | 0.00 | 1.52 | 1.04 | 99 | 1009.9 |
| 20260506124240 | 14 | 68 | 11.3 | 14.5 | 0.00 | 1.52 | 1.04 | 99 | 1009.8 |
| 20260506123940 | 14 | 90 | 11.3 | 14.5 | 0.00 | 1.52 | 1.04 | 99 | 1010.0 |
| 20260506123840 | 14 | 90 | 12.9 | 14.5 | 0.00 | 1.52 | 1.04 | 99 | 1009.9 |
| 20260506123540 | 14 | 68 | 11.3 | 11.3 | 0.00 | 1.52 | 1.04 | 99 | 1010.0 |
| 20260506123440 | 14 | 68 | 12.9 | 14.5 | 0.00 | 1.52 | 1.04 | 99 | 1009.9 |
| 20260506123340 | 15 | 68 | 11.3 | 14.5 | 0.00 | 1.52 | 1.04 | 99 | 1009.8 |
| 20260506123140 | 14 | 68 | 12.9 | 14.5 | 0.00 | 1.52 | 1.04 | 99 | 1009.9 |
| 20260506122839 | 15 | 68 | 11.3 | 14.5 | 0.00 | 1.55 | 1.04 | 99 | 1009.8 |
| 20260506122739 | 14 | 90 | 12.9 | 14.5 | 0.00 | 1.55 | 1.04 | 99 | 1009.8 |
| 20260506122539 | 14 | 68 | 11.3 | 14.5 | 0.00 | 1.55 | 1.04 | 99 | 1009.8 |
| 20260506122439 | 14 | 90 | 12.9 | 14.5 | 0.00 | 1.55 | 1.04 | 99 | 1010.1 |
| 20260506122340 | 14 | 68 | 14.5 | 14.5 | 0.00 | 1.55 | 1.04 | 99 | 1010.1 |
| 20260506121740 | 13 | 68 | 12.9 | 14.5 | 0.00 | 1.55 | 1.04 | 99 | 1009.8 |
| 20260506121339 | 14 | 68 | 14.5 | 16.1 | 0.00 | 1.57 | 1.04 | 99 | 1010.0 |
| 20260506121239 | 14 | 68 | 12.9 | 14.5 | 0.00 | 1.57 | 1.04 | 99 | 1010.1 |
| 20260506121139 | 13 | 68 | 14.5 | 16.1 | 0.00 | 1.57 | 1.04 | 99 | 1010.2 |
| 20260506121040 | 14 | 68 | 14.5 | 16.1 | 0.00 | 1.57 | 1.04 | 99 | 1010.1 |
| 20260506120940 | 14 | 68 | 14.5 | 16.1 | 0.00 | 1.57 | 1.04 | 99 | 1010.1 |
| 20260506120840 | 14 | 68 | 12.9 | 14.5 | 0.00 | 1.57 | 1.04 | 99 | 1010.0 |
| 20260506120340 | 13 | 68 | 12.9 | 14.5 | 0.00 | 1.57 | 1.04 | 99 | 1010.3 |
| 20260506120240 | 13 | 68 | 12.9 | 14.5 | 0.00 | 1.57 | 1.04 | 99 | 1010.3 |
| 20260506120139 | 13 | 68 | 12.9 | 14.5 | 0.00 | 1.57 | 1.04 | 99 | 1010.3 |
| 20260506120040 | 13 | 68 | 12.9 | 14.5 | 0.00 | 1.57 | 1.04 | 99 | 1010.2 |
| 20260506115840 | 13 | 68 | 12.9 | 14.5 | 0.00 | 1.57 | 1.04 | 99 | 1010.3 |
| 20260506115739 | 13 | 68 | 12.9 | 14.5 | 0.00 | 1.57 | 1.04 | 99 | 1010.3 |
| 20260506115540 | 13 | 68 | 12.9 | 16.1 | 0.00 | 1.57 | 1.04 | 99 | 1010.2 |
| 20260506115339 | 14 | 68 | 14.5 | 17.7 | 0.00 | 1.60 | 1.04 | 99 | 1010.3 |
| 20260506115239 | 14 | 68 | 14.5 | 16.1 | 0.00 | 1.60 | 1.04 | 99 | 1010.2 |
| 20260506115139 | 14 | 68 | 12.9 | 16.1 | 0.00 | 1.60 | 1.04 | 99 | 1010.4 |
| 20260506115040 | 14 | 68 | 12.9 | 14.5 | 0.00 | 1.60 | 1.04 | 99 | 1010.2 |
| 20260506114839 | 14 | 68 | 14.5 | 16.1 | 0.00 | 1.60 | 1.04 | 99 | 1010.3 |
| 20260506114639 | 14 | 68 | 14.5 | 17.7 | 0.00 | 1.60 | 1.04 | 99 | 1010.2 |
| 20260506114440 | 14 | 68 | 12.9 | 14.5 | 0.00 | 1.60 | 1.04 | 99 | 1010.5 |
| 20260506114139 | 14 | 68 | 12.9 | 14.5 | 0.03 | 1.60 | 1.04 | 99 | 1010.3 |
| 20260506113440 | 13 | 90 | 11.3 | 14.5 | 0.08 | 1.60 | 1.04 | 99 | 1010.4 |
| 20260506113340 | 14 | 68 | 12.9 | 14.5 | 0.08 | 1.60 | 1.04 | 99 | 1010.3 |
| 20260506113240 | 13 | 68 | 11.3 | 14.5 | 0.08 | 1.63 | 1.04 | 99 | 1010.5 |
| 20260506113140 | 13 | 90 | 11.3 | 12.9 | 0.10 | 1.63 | 1.04 | 99 | 1010.5 |
| 20260506112941 | 14 | 90 | 11.3 | 11.3 | 0.13 | 1.63 | 1.04 | 99 | 1010.4 |
| 20260506112739 | 13 | 68 | 12.9 | 14.5 | 0.13 | 1.63 | 1.04 | 99 | 1010.4 |
| 20260506112339 | 13 | 68 | 11.3 | 14.5 | 0.13 | 1.63 | 1.04 | 99 | 1010.5 |
| 20260506112240 | 13 | 68 | 11.3 | 12.9 | 0.13 | 1.63 | 1.04 | 99 | 1010.4 |
| 20260506112139 | 13 | 68 | 12.9 | 14.5 | 0.13 | 1.63 | 1.04 | 99 | 1010.4 |
| 20260506111940 | 13 | 68 | 11.3 | 14.5 | 0.13 | 1.63 | 1.04 | 99 | 1010.2 |
| 20260506111640 | 13 | 68 | 8.0 | 11.3 | 0.13 | 1.63 | 1.04 | 99 | 1010.6 |
| 20260506110940 | 13 | 68 | 9.7 | 11.3 | 0.13 | 1.63 | 1.04 | 99 | 1010.2 |
| 20260506110839 | 13 | 90 | 8.0 | 9.7 | 0.13 | 1.63 | 1.04 | 99 | 1010.5 |
| 20260506110740 | 13 | 90 | 8.0 | 9.7 | 0.13 | 1.63 | 1.04 | 99 | 1010.6 |
| 20260506110340 | 13 | 90 | 11.3 | 11.3 | 0.13 | 1.63 | 1.04 | 99 | 1010.6 |
| 20260506110139 | 13 | 112 | 9.7 | 11.3 | 0.13 | 1.63 | 1.04 | 99 | 1010.5 |
| 20260506105839 | 13 | 90 | 8.0 | 9.7 | 0.13 | 1.63 | 1.04 | 99 | 1010.5 |
| 20260506105739 | 13 | 90 | 9.7 | 9.7 | 0.13 | 1.63 | 1.04 | 99 | 1010.7 |
| 20260506105540 | 13 | 90 | 8.0 | 9.7 | 0.13 | 1.63 | 1.04 | 99 | 1010.6 |
| 20260506105440 | 13 | 90 | 8.0 | 9.7 | 0.13 | 1.63 | 1.04 | 99 | 1010.7 |
| 20260506104940 | 13 | 90 | 6.4 | 8.0 | 0.18 | 1.63 | 1.04 | 99 | 1010.6 |
| 20260506104840 | 13 | 90 | 6.4 | 8.0 | 0.18 | 1.63 | 1.04 | 99 | 1010.8 |
| 20260506104740 | 13 | 112 | 6.4 | 9.7 | 0.18 | 1.63 | 1.04 | 99 | 1010.7 |
| 20260506104540 | 13 | 90 | 6.4 | 8.0 | 0.18 | 1.63 | 1.04 | 99 | 1011.1 |
| 20260506104240 | 13 | 90 | 6.4 | 6.4 | 0.18 | 1.60 | 1.02 | 99 | 1010.8 |
| 20260506104040 | 13 | 90 | 6.4 | 6.4 | 0.18 | 1.60 | 1.02 | 99 | 1010.8 |
| 20260506103939 | 13 | 90 | 6.4 | 8.0 | 0.18 | 1.60 | 1.02 | 99 | 1011.0 |
| 20260506103340 | 13 | 90 | 8.0 | 9.7 | 0.13 | 1.55 | 0.94 | 99 | 1010.9 |
| 20260506103240 | 13 | 68 | 8.0 | 9.7 | 0.10 | 1.52 | 0.91 | 99 | 1010.8 |
| 20260506103040 | 13 | 68 | 11.3 | 11.3 | 0.08 | 1.50 | 0.89 | 99 | 1010.7 |
| 20260506102840 | 14 | 90 | 12.9 | 14.5 | 0.08 | 1.50 | 0.89 | 99 | 1010.5 |
| 20260506102440 | 13 | 90 | 12.9 | 16.1 | 0.08 | 1.50 | 0.89 | 99 | 1010.4 |
| 20260506102340 | 13 | 90 | 12.9 | 14.5 | 0.08 | 1.50 | 0.89 | 99 | 1010.6 |
| 20260506102240 | 13 | 112 | 14.5 | 17.7 | 0.08 | 1.50 | 0.89 | 99 | 1010.4 |
| 20260506102139 | 13 | 90 | 14.5 | 17.7 | 0.08 | 1.50 | 0.89 | 99 | 1010.6 |
| 20260506101840 | 14 | 68 | 12.9 | 14.5 | 0.08 | 1.50 | 0.89 | 99 | 1010.6 |
| 20260506101740 | 13 | 90 | 11.3 | 14.5 | 0.08 | 1.50 | 0.89 | 99 | 1010.7 |
| 20260506101640 | 13 | 90 | 11.3 | 14.5 | 0.08 | 1.50 | 0.89 | 99 | 1010.6 |
| 20260506101539 | 13 | 68 | 11.3 | 14.5 | 0.08 | 1.50 | 0.89 | 99 | 1010.6 |
| 20260506101339 | 13 | 90 | 11.3 | 14.5 | 0.08 | 1.50 | 0.89 | 99 | 1010.7 |
| 20260506101239 | 13 | 112 | 11.3 | 11.3 | 0.08 | 1.50 | 0.89 | 99 | 1010.6 |
| 20260506101040 | 13 | 90 | 8.0 | 9.7 | 0.08 | 1.50 | 0.89 | 99 | 1010.8 |
| 20260506100640 | 13 | 90 | 8.0 | 9.7 | 0.08 | 1.50 | 0.89 | 99 | 1011.1 |
| 20260506100540 | 13 | 90 | 11.3 | 12.9 | 0.08 | 1.50 | 0.89 | 99 | 1010.8 |
| 20260506100340 | 13 | 90 | 8.0 | 9.7 | 0.08 | 1.50 | 0.89 | 99 | 1010.7 |
| 20260506100239 | 13 | 90 | 8.0 | 11.3 | 0.08 | 1.50 | 0.89 | 99 | 1010.7 |
| 20260506100140 | 13 | 90 | 8.0 | 9.7 | 0.08 | 1.50 | 0.89 | 99 | 1010.5 |
| 20260506100040 | 13 | 90 | 8.0 | 11.3 | 0.08 | 1.50 | 0.89 | 99 | 1010.6 |
| 20260506095939 | 13 | 90 | 11.3 | 11.3 | 0.08 | 1.50 | 0.89 | 99 | 1010.7 |
| 20260506095739 | 13 | 90 | 9.7 | 11.3 | 0.08 | 1.50 | 0.89 | 99 | 1010.5 |
| 20260506095639 | 13 | 90 | 8.0 | 9.7 | 0.08 | 1.50 | 0.89 | 99 | 1010.5 |
| 20260506095340 | 13 | 90 | 8.0 | 9.7 | 0.08 | 1.50 | 0.89 | 99 | 1010.6 |
| 20260506095040 | 13 | 90 | 9.7 | 11.3 | 0.05 | 1.45 | 0.86 | 99 | 1010.5 |
| 20260506094840 | 13 | 90 | 8.0 | 9.7 | 0.05 | 1.45 | 0.86 | 99 | 1010.7 |
| 20260506094740 | 13 | 112 | 6.4 | 8.0 | 0.05 | 1.45 | 0.86 | 99 | 1010.8 |
| 20260506094539 | 13 | 90 | 6.4 | 9.7 | 0.05 | 1.45 | 0.86 | 99 | 1010.8 |
| 20260506094040 | 13 | 90 | 6.4 | 9.7 | 0.03 | 1.42 | 0.84 | 99 | 1010.6 |
| 20260506093940 | 13 | 90 | 8.0 | 9.7 | 0.03 | 1.42 | 0.84 | 99 | 1010.8 |
| 20260506093840 | 13 | 90 | 9.7 | 9.7 | 0.03 | 1.42 | 0.84 | 99 | 1010.6 |
| 20260506093640 | 13 | 68 | 6.4 | 9.7 | 0.00 | 1.40 | 0.79 | 99 | 1010.5 |
| 20260506093340 | 13 | 112 | 8.0 | 9.7 | 0.00 | 1.40 | 0.79 | 99 | 1010.5 |
| 20260506093239 | 13 | 90 | 9.7 | 11.3 | 0.00 | 1.40 | 0.79 | 99 | 1010.7 |
| 20260506093139 | 13 | 112 | 9.7 | 11.3 | 0.00 | 1.40 | 0.79 | 99 | 1010.6 |
| 20260506092740 | 14 | 90 | 9.7 | 11.3 | 0.00 | 1.40 | 0.79 | 99 | 1010.2 |
| 20260506092339 | 14 | 90 | 8.0 | 9.7 | 0.00 | 1.40 | 0.79 | 99 | 1010.3 |
| 20260506092039 | 14 | 90 | 8.0 | 9.7 | 0.03 | 1.40 | 0.79 | 99 | 1010.2 |
| 20260506091939 | 14 | 90 | 9.7 | 11.3 | 0.03 | 1.40 | 0.79 | 99 | 1010.1 |
| 20260506091340 | 13 | 158 | 3.2 | 6.4 | 0.03 | 1.40 | 0.79 | 99 | 1010.1 |
| 20260506091039 | 14 | 135 | 4.8 | 8.0 | 0.03 | 1.40 | 0.79 | 99 | 1010.1 |
| 20260506090939 | 14 | 112 | 3.2 | 6.4 | 0.03 | 1.40 | 0.79 | 99 | 1010.0 |
| 20260506090840 | 14 | 158 | 3.2 | 6.4 | 0.03 | 1.40 | 0.79 | 99 | 1009.8 |
| 20260506090740 | 14 | 135 | 6.4 | 8.0 | 0.03 | 1.40 | 0.79 | 99 | 1010.0 |
| 20260506090640 | 14 | 180 | 3.2 | 3.2 | 0.03 | 1.40 | 0.79 | 99 | 1009.8 |
| 20260506090439 | 14 | 135 | 4.8 | 8.0 | 0.03 | 1.40 | 0.79 | 99 | 1009.9 |
| 20260506090140 | 15 | 68 | 12.9 | 14.5 | 0.03 | 1.40 | 0.79 | 98 | 1010.1 |
| 20260506085839 | 14 | 112 | 9.7 | 11.3 | 0.03 | 1.40 | 0.79 | 98 | 1010.0 |
| 20260506085640 | 14 | 112 | 9.7 | 11.3 | 0.03 | 1.40 | 0.79 | 98 | 1010.2 |
| 20260506085540 | 15 | 112 | 9.7 | 11.3 | 0.03 | 1.40 | 0.79 | 98 | 1010.1 |
| 20260506085440 | 15 | 68 | 6.4 | 9.7 | 0.03 | 1.40 | 0.79 | 98 | 1010.6 |
| 20260506085140 | 14 | 68 | 11.3 | 14.5 | 0.03 | 1.42 | 0.79 | 98 | 1010.3 |
| 20260506084839 | 14 | 90 | 16.1 | 19.3 | 0.03 | 1.42 | 0.79 | 98 | 1010.1 |
| 20260506084740 | 14 | 68 | 11.3 | 12.9 | 0.03 | 1.42 | 0.79 | 99 | 1010.1 |
| 20260506084640 | 14 | 68 | 14.5 | 16.1 | 0.03 | 1.42 | 0.79 | 99 | 1010.2 |
| 20260506084340 | 14 | 68 | 14.5 | 16.1 | 0.03 | 1.42 | 0.79 | 99 | 1010.2 |
| 20260506084239 | 14 | 68 | 14.5 | 14.5 | 0.03 | 1.42 | 0.79 | 99 | 1010.3 |
| 20260506083940 | 14 | 68 | 11.3 | 14.5 | 0.03 | 1.45 | 0.79 | 99 | 1010.2 |
| 20260506083840 | 13 | 68 | 12.9 | 16.1 | 0.03 | 1.45 | 0.79 | 99 | 1010.3 |
| 20260506083639 | 14 | 90 | 12.9 | 14.5 | 0.05 | 1.45 | 0.79 | 99 | 1010.1 |
| 20260506083439 | 13 | 90 | 12.9 | 14.5 | 0.05 | 1.45 | 0.79 | 99 | 1009.9 |
| 20260506083339 | 13 | 90 | 11.3 | 14.5 | 0.05 | 1.45 | 0.79 | 99 | 1009.9 |
| 20260506082740 | 13 | 90 | 11.3 | 12.9 | 0.08 | 1.50 | 0.79 | 99 | 1010.2 |
| 20260506082639 | 13 | 90 | 11.3 | 12.9 | 0.08 | 1.50 | 0.79 | 99 | 1010.2 |
| 20260506082239 | 13 | 90 | 11.3 | 14.5 | 0.08 | 1.50 | 0.79 | 99 | 1010.5 |
| 20260506082039 | 13 | 90 | 9.7 | 11.3 | 0.05 | 1.45 | 0.76 | 99 | 1010.6 |
| 20260506081940 | 13 | 135 | 9.7 | 11.3 | 0.05 | 1.45 | 0.76 | 99 | 1010.4 |
| 20260506081639 | 13 | 90 | 9.7 | 11.3 | 0.05 | 1.45 | 0.76 | 99 | 1010.5 |
| 20260506081040 | 13 | 90 | 9.7 | 11.3 | 0.08 | 1.45 | 0.76 | 99 | 1010.6 |
| 20260506080539 | 13 | 112 | 11.3 | 12.9 | 0.08 | 1.45 | 0.76 | 99 | 1010.8 |
| 20260506080439 | 13 | 90 | 11.3 | 12.9 | 0.08 | 1.45 | 0.76 | 99 | 1010.6 |
| 20260506080339 | 13 | 90 | 11.3 | 11.3 | 0.08 | 1.45 | 0.76 | 99 | 1010.5 |
| 20260506080140 | 13 | 90 | 9.7 | 9.7 | 0.08 | 1.45 | 0.76 | 99 | 1010.4 |
| 20260506073340 | 13 | 90 | 6.4 | 9.7 | 0.05 | 1.40 | 0.71 | 99 | 1010.7 |
| 20260506073240 | 13 | 90 | 8.0 | 9.7 | 0.05 | 1.40 | 0.71 | 99 | 1010.4 |
| 20260506072840 | 13 | 90 | 6.4 | 8.0 | 0.08 | 1.40 | 0.71 | 99 | 1010.6 |
| 20260506072740 | 13 | 112 | 6.4 | 6.4 | 0.08 | 1.40 | 0.71 | 99 | 1010.5 |
| 20260506072539 | 13 | 90 | 6.4 | 8.0 | 0.08 | 1.40 | 0.71 | 99 | 1010.5 |
| 20260506071940 | 13 | 112 | 4.8 | 6.4 | 0.08 | 1.40 | 0.71 | 99 | 1010.7 |
| 20260506071839 | 13 | 112 | 6.4 | 9.7 | 0.08 | 1.40 | 0.71 | 99 | 1010.7 |
| 20260506071639 | 13 | 112 | 6.4 | 8.0 | 0.08 | 1.40 | 0.71 | 99 | 1010.8 |
| 20260506071340 | 13 | 90 | 3.2 | 8.0 | 0.05 | 1.37 | 0.69 | 99 | 1010.5 |
| 20260506071240 | 13 | 112 | 3.2 | 4.8 | 0.05 | 1.37 | 0.69 | 99 | 1010.6 |
| 20260506071039 | 13 | 90 | 4.8 | 6.4 | 0.05 | 1.37 | 0.69 | 99 | 1010.8 |
| 20260506070839 | 13 | 68 | 3.2 | 3.2 | 0.05 | 1.37 | 0.69 | 99 | 1010.7 |
| 20260506070140 | 13 | 180 | 3.2 | 6.4 | 0.03 | 1.35 | 0.64 | 99 | 1010.6 |
| 20260506062240 | 13 | 90 | 8.0 | 11.3 | 0.25 | 1.30 | 0.61 | 99 | 1010.7 |
| 20260506062040 | 13 | 135 | 8.0 | 11.3 | 0.25 | 1.30 | 0.61 | 99 | 1010.8 |
| 20260506061840 | 13 | 112 | 6.4 | 9.7 | 0.25 | 1.30 | 0.61 | 99 | 1010.8 |
| 20260506061339 | 13 | 112 | 6.4 | 9.7 | 0.28 | 1.30 | 0.61 | 99 | 1011.1 |
| 20260506061139 | 13 | 112 | 8.0 | 9.7 | 0.28 | 1.30 | 0.61 | 99 | 1011.0 |
| 20260506060940 | 13 | 112 | 6.4 | 8.0 | 0.30 | 1.30 | 0.61 | 99 | 1010.9 |
| 20260506060740 | 13 | 112 | 6.4 | 6.4 | 0.30 | 1.30 | 0.61 | 99 | 1011.0 |
| 20260506060540 | 13 | 112 | 8.0 | 9.7 | 0.30 | 1.30 | 0.61 | 99 | 1010.9 |
| 20260506060440 | 13 | 112 | 6.4 | 11.3 | 0.30 | 1.30 | 0.61 | 99 | 1011.2 |
| 20260506051239 | 13 | 90 | 9.7 | 11.3 | 0.23 | 1.02 | 0.30 | 99 | 1010.8 |
| 20260506050939 | 13 | 90 | 11.3 | 12.9 | 0.23 | 0.97 | 0.28 | 99 | 1011.0 |
| 20260506050840 | 13 | 112 | 9.7 | 11.3 | 0.23 | 0.97 | 0.28 | 99 | 1011.0 |
| 20260506050639 | 13 | 90 | 11.3 | 14.5 | 0.23 | 0.97 | 0.28 | 99 | 1010.8 |
| 20260506050439 | 13 | 90 | 11.3 | 14.5 | 0.23 | 0.97 | 0.28 | 99 | 1010.8 |
| 20260506050339 | 13 | 112 | 11.3 | 11.3 | 0.23 | 0.97 | 0.28 | 99 | 1010.7 |
| 20260506050140 | 13 | 112 | 12.9 | 16.1 | 0.25 | 0.97 | 0.28 | 99 | 1010.6 |
| 20260506044840 | 13 | 90 | 11.3 | 11.3 | 0.18 | 0.89 | 0.20 | 99 | 1010.8 |
| 20260506044439 | 13 | 68 | 9.7 | 9.7 | 0.13 | 0.86 | 0.18 | 99 | 1010.9 |
| 20260506044140 | 13 | 90 | 8.0 | 9.7 | 0.13 | 0.86 | 0.18 | 99 | 1010.9 |
| 20260506043940 | 13 | 90 | 9.7 | 11.3 | 0.10 | 0.84 | 0.13 | 99 | 1011.1 |
| 20260506043839 | 13 | 68 | 9.7 | 9.7 | 0.10 | 0.84 | 0.13 | 99 | 1011.0 |
| 20260506043739 | 13 | 68 | 9.7 | 11.3 | 0.10 | 0.84 | 0.13 | 99 | 1011.1 |
| 20260506043539 | 13 | 90 | 8.0 | 9.7 | 0.10 | 0.84 | 0.13 | 99 | 1011.3 |
| 20260506043340 | 13 | 90 | 8.0 | 9.7 | 0.10 | 0.84 | 0.13 | 99 | 1011.2 |
| 20260506043240 | 13 | 90 | 8.0 | 9.7 | 0.10 | 0.84 | 0.13 | 99 | 1011.2 |
| 20260506043140 | 13 | 90 | 8.0 | 9.7 | 0.10 | 0.84 | 0.13 | 99 | 1011.3 |
| 20260506042840 | 13 | 90 | 8.0 | 9.7 | 0.08 | 0.79 | 0.10 | 99 | 1011.3 |
| 20260506042739 | 13 | 90 | 6.4 | 8.0 | 0.08 | 0.79 | 0.10 | 99 | 1011.2 |
| 20260506042440 | 13 | 90 | 6.4 | 8.0 | 0.08 | 0.79 | 0.10 | 99 | 1011.0 |
| 20260506042240 | 13 | 68 | 6.4 | 6.4 | 0.08 | 0.79 | 0.10 | 99 | 1011.1 |
| 20260506042040 | 13 | 68 | 6.4 | 8.0 | 0.08 | 0.79 | 0.10 | 99 | 1011.1 |
| 20260506041939 | 13 | 90 | 8.0 | 9.7 | 0.08 | 0.79 | 0.10 | 99 | 1011.0 |
| 20260506041639 | 13 | 68 | 6.4 | 6.4 | 0.05 | 0.76 | 0.08 | 99 | 1011.2 |
| 20260506041540 | 13 | 68 | 6.4 | 8.0 | 0.05 | 0.76 | 0.08 | 99 | 1011.2 |
| 20260506041339 | 14 | 68 | 8.0 | 9.7 | 0.05 | 0.76 | 0.08 | 99 | 1011.1 |
| 20260506041040 | 13 | 68 | 8.0 | 9.7 | 0.03 | 0.74 | 0.05 | 99 | 1011.1 |
| 20260506040940 | 13 | 68 | 9.7 | 9.7 | 0.03 | 0.74 | 0.05 | 99 | 1010.9 |
| 20260506040739 | 14 | 90 | 8.0 | 9.7 | 0.03 | 0.74 | 0.05 | 99 | 1011.0 |
| 20260506040440 | 13 | 90 | 6.4 | 8.0 | 0.03 | 0.74 | 0.05 | 99 | 1011.0 |
| 20260506040340 | 13 | 68 | 8.0 | 9.7 | 0.03 | 0.74 | 0.05 | 99 | 1011.3 |
| 20260506040140 | 14 | 90 | 6.4 | 8.0 | 0.00 | 0.71 | 0.03 | 99 | 1011.1 |
| 20260506040040 | 14 | 90 | 6.4 | 6.4 | 0.00 | 0.71 | 0.03 | 99 | 1011.0 |
| 20260506035739 | 14 | 90 | 6.4 | 9.7 | 0.00 | 0.71 | 0.03 | 99 | 1010.9 |
| 20260506035639 | 14 | 90 | 8.0 | 9.7 | 0.00 | 0.71 | 0.03 | 99 | 1011.0 |
| 20260506035540 | 13 | 90 | 8.0 | 9.7 | 0.00 | 0.71 | 0.03 | 99 | 1011.1 |
| 20260506035440 | 13 | 90 | 8.0 | 9.7 | 0.00 | 0.71 | 0.03 | 99 | 1010.9 |
| 20260506035340 | 13 | 90 | 9.7 | 11.3 | 0.00 | 0.71 | 0.03 | 99 | 1010.9 |
| 20260506035140 | 13 | 90 | 8.0 | 9.7 | 0.00 | 0.71 | 0.03 | 99 | 1010.9 |
| 20260506035040 | 13 | 90 | 8.0 | 9.7 | 0.00 | 0.71 | 0.03 | 99 | 1010.9 |
| 20260506034940 | 13 | 90 | 8.0 | 11.3 | 0.00 | 0.71 | 0.03 | 99 | 1010.9 |
| 20260506034639 | 13 | 112 | 8.0 | 9.7 | 0.00 | 0.71 | 0.03 | 99 | 1010.9 |
| 20260506034539 | 13 | 112 | 8.0 | 9.7 | 0.00 | 0.71 | 0.03 | 99 | 1011.0 |
| 20260506034440 | 13 | 90 | 8.0 | 9.7 | 0.00 | 0.71 | 0.03 | 99 | 1010.8 |
| 20260506034340 | 13 | 90 | 6.4 | 9.7 | 0.00 | 0.71 | 0.03 | 99 | 1010.9 |
| 20260506034240 | 13 | 135 | 6.4 | 8.0 | 0.00 | 0.71 | 0.03 | 99 | 1011.0 |
| 20260506034140 | 13 | 112 | 4.8 | 6.4 | 0.00 | 0.71 | 0.03 | 99 | 1011.0 |
| 20260506033840 | 13 | 135 | 3.2 | 3.2 | 0.00 | 0.71 | 0.03 | 99 | 1010.9 |
| 20260506033740 | 13 | 112 | 3.2 | 4.8 | 0.00 | 0.71 | 0.03 | 99 | 1010.7 |
| 20260506033140 | 13 | 90 | 8.0 | 11.3 | 0.00 | 0.71 | 0.03 | 99 | 1011.0 |
| 20260506033040 | 13 | 90 | 9.7 | 11.3 | 0.00 | 0.71 | 0.03 | 99 | 1010.9 |
| 20260506032739 | 14 | 90 | 9.7 | 11.3 | 0.00 | 0.71 | 0.03 | 99 | 1010.9 |
| 20260506032340 | 14 | 90 | 9.7 | 9.7 | 0.00 | 0.71 | 0.03 | 99 | 1010.8 |
| 20260506032140 | 13 | 90 | 9.7 | 11.3 | 0.00 | 0.71 | 0.03 | 99 | 1010.7 |
| 20260506032040 | 14 | 90 | 9.7 | 11.3 | 0.00 | 0.71 | 0.03 | 99 | 1010.6 |
| 20260506031739 | 14 | 90 | 9.7 | 11.3 | 0.00 | 0.71 | 0.03 | 99 | 1010.9 |
| 20260506031640 | 14 | 90 | 9.7 | 9.7 | 0.00 | 0.71 | 0.03 | 99 | 1010.9 |
| 20260506031440 | 14 | 90 | 8.0 | 9.7 | 0.00 | 0.71 | 0.03 | 99 | 1010.8 |
| 20260506031339 | 13 | 90 | 8.0 | 9.7 | 0.00 | 0.71 | 0.03 | 99 | 1010.9 |
| 20260506031240 | 14 | 90 | 8.0 | 9.7 | 0.00 | 0.71 | 0.03 | 99 | 1010.8 |
| 20260506031040 | 14 | 90 | 8.0 | 9.7 | 0.00 | 0.71 | 0.03 | 99 | 1011.0 |
| 20260506030840 | 13 | 90 | 8.0 | 9.7 | 0.00 | 0.71 | 0.03 | 99 | 1010.9 |
| 20260506030740 | 14 | 90 | 8.0 | 9.7 | 0.00 | 0.71 | 0.03 | 99 | 1011.1 |
| 20260506030339 | 13 | 90 | 9.7 | 11.3 | 0.00 | 0.71 | 0.03 | 99 | 1010.9 |
| 20260506025840 | 13 | 90 | 9.7 | 9.7 | 0.00 | 0.71 | 0.03 | 99 | 1011.3 |
| 20260506025740 | 13 | 90 | 8.0 | 11.3 | 0.00 | 0.71 | 0.03 | 99 | 1011.4 |
| 20260506025439 | 13 | 90 | 8.0 | 9.7 | 0.00 | 0.71 | 0.03 | 99 | 1011.6 |
| 20260506025040 | 13 | 90 | 8.0 | 9.7 | 0.00 | 0.71 | 0.03 | 99 | 1011.7 |
| 20260506024940 | 14 | 112 | 8.0 | 9.7 | 0.00 | 0.71 | 0.03 | 99 | 1011.6 |
| 20260506024840 | 13 | 90 | 9.7 | 9.7 | 0.00 | 0.71 | 0.03 | 99 | 1011.8 |
| 20260506024740 | 13 | 90 | 8.0 | 9.7 | 0.00 | 0.71 | 0.03 | 99 | 1011.6 |
| 20260506024640 | 14 | 90 | 6.4 | 8.0 | 0.00 | 0.71 | 0.03 | 99 | 1011.6 |
| 20260506024540 | 13 | 90 | 8.0 | 9.7 | 0.00 | 0.71 | 0.03 | 99 | 1011.8 |
| 20260506024239 | 14 | 90 | 6.4 | 8.0 | 0.00 | 0.71 | 0.03 | 99 | 1011.6 |
| 20260506024039 | 13 | 90 | 6.4 | 8.0 | 0.00 | 0.71 | 0.03 | 99 | 1011.7 |
| 20260506023939 | 13 | 90 | 6.4 | 8.0 | 0.00 | 0.71 | 0.03 | 99 | 1011.7 |
| 20260506023740 | 13 | 90 | 6.4 | 8.0 | 0.00 | 0.71 | 0.03 | 99 | 1011.8 |
| 20260506023639 | 13 | 90 | 6.4 | 8.0 | 0.00 | 0.71 | 0.03 | 99 | 1011.6 |
| 20260506023339 | 13 | 112 | 6.4 | 8.0 | 0.00 | 0.71 | 0.03 | 99 | 1011.9 |
| 20260506023140 | 13 | 90 | 6.4 | 8.0 | 0.00 | 0.71 | 0.03 | 99 | 1011.7 |
| 20260506023040 | 13 | 90 | 6.4 | 8.0 | 0.00 | 0.71 | 0.03 | 99 | 1011.8 |
| 20260506022940 | 13 | 90 | 6.4 | 8.0 | 0.00 | 0.71 | 0.03 | 99 | 1011.7 |
| 20260506022639 | 13 | 112 | 6.4 | 8.0 | 0.00 | 0.71 | 0.03 | 99 | 1011.9 |
| 20260506022539 | 14 | 90 | 6.4 | 8.0 | 0.00 | 0.71 | 0.03 | 99 | 1011.6 |
| 20260506022439 | 13 | 90 | 6.4 | 6.4 | 0.00 | 0.71 | 0.03 | 99 | 1011.7 |
| 20260506021839 | 13 | 112 | 6.4 | 8.0 | 0.00 | 0.71 | 0.03 | 99 | 1011.5 |
| 20260506021740 | 14 | 90 | 6.4 | 8.0 | 0.00 | 0.71 | 0.03 | 99 | 1011.6 |
| 20260506021640 | 14 | 90 | 6.4 | 9.7 | 0.00 | 0.71 | 0.03 | 99 | 1011.6 |
| 20260506021440 | 13 | 90 | 6.4 | 8.0 | 0.00 | 0.71 | 0.03 | 99 | 1011.8 |
| 20260506020839 | 14 | 90 | 6.4 | 8.0 | 0.00 | 0.71 | 0.03 | 99 | 1011.8 |
| 20260506020739 | 13 | 90 | 6.4 | 8.0 | 0.00 | 0.71 | 0.03 | 99 | 1011.9 |
| 20260506020540 | 13 | 68 | 6.4 | 6.4 | 0.00 | 0.71 | 0.03 | 99 | 1011.8 |
| 20260506020139 | 13 | 90 | 6.4 | 8.0 | 0.00 | 0.71 | 0.03 | 99 | 1012.0 |
| 20260506015940 | 14 | 68 | 6.4 | 9.7 | 0.00 | 0.71 | 0.03 | 99 | 1011.8 |
| 20260506015840 | 13 | 90 | 6.4 | 8.0 | 0.00 | 0.71 | 0.03 | 99 | 1012.0 |
| 20260506015640 | 14 | 90 | 6.4 | 8.0 | 0.00 | 0.71 | 0.03 | 99 | 1011.7 |
| 20260506015439 | 14 | 90 | 6.4 | 9.7 | 0.00 | 0.71 | 0.03 | 99 | 1011.9 |
| 20260506015349 | 14 | 90 | 6.4 | 8.0 | 0.00 | 0.71 | 0.03 | 99 | 1011.9 |
| 20260506015240 | 14 | 90 | 6.4 | 6.4 | 0.00 | 0.71 | 0.03 | 99 | 1012.1 |
| 20260506015040 | 14 | 90 | 6.4 | 6.4 | 0.00 | 0.71 | 0.03 | 99 | 1012.0 |
| 20260506014740 | 13 | 68 | 6.4 | 6.4 | 0.00 | 0.71 | 0.03 | 99 | 1012.2 |
| 20260506014640 | 13 | 90 | 6.4 | 6.4 | 0.00 | 0.71 | 0.03 | 99 | 1012.1 |
| 20260506014540 | 14 | 90 | 6.4 | 8.0 | 0.00 | 0.71 | 0.03 | 99 | 1012.1 |
| 20260506014440 | 14 | 90 | 4.8 | 6.4 | 0.00 | 0.71 | 0.03 | 99 | 1012.2 |
| 20260506014340 | 14 | 90 | 4.8 | 6.4 | 0.00 | 0.71 | 0.03 | 99 | 1012.1 |
| 20260506014240 | 14 | 90 | 4.8 | 6.4 | 0.00 | 0.71 | 0.03 | 99 | 1012.0 |
| 20260506014140 | 14 | 90 | 6.4 | 6.4 | 0.00 | 0.71 | 0.03 | 99 | 1012.3 |
| 20260506014040 | 13 | 90 | 6.4 | 8.0 | 0.00 | 0.71 | 0.03 | 99 | 1012.3 |
| 20260506013940 | 14 | 90 | 6.4 | 6.4 | 0.00 | 0.71 | 0.03 | 99 | 1012.2 |
| 20260506013739 | 13 | 90 | 6.4 | 6.4 | 0.00 | 0.71 | 0.03 | 99 | 1012.2 |
| 20260506013640 | 14 | 90 | 6.4 | 6.4 | 0.00 | 0.71 | 0.03 | 99 | 1012.0 |
| 20260506013340 | 14 | 90 | 6.4 | 8.0 | 0.00 | 0.71 | 0.03 | 99 | 1012.1 |
| 20260506013239 | 14 | 90 | 6.4 | 6.4 | 0.00 | 0.71 | 0.03 | 99 | 1012.2 |
| 20260506013139 | 13 | 68 | 6.4 | 6.4 | 0.00 | 0.71 | 0.03 | 99 | 1011.9 |
| 20260506012740 | 13 | 68 | 6.4 | 6.4 | 0.00 | 0.71 | 0.03 | 99 | 1012.0 |
| 20260506012639 | 13 | 90 | 6.4 | 6.4 | 0.00 | 0.71 | 0.03 | 99 | 1012.0 |
| 20260506012439 | 13 | 90 | 6.4 | 6.4 | 0.00 | 0.71 | 0.03 | 99 | 1012.0 |
| 20260506012339 | 13 | 90 | 6.4 | 6.4 | 0.00 | 0.71 | 0.03 | 99 | 1012.0 |
| 20260506012239 | 13 | 68 | 4.8 | 6.4 | 0.00 | 0.71 | 0.03 | 99 | 1012.0 |
| 20260506012040 | 13 | 90 | 4.8 | 6.4 | 0.00 | 0.71 | 0.03 | 99 | 1012.1 |
| 20260506011940 | 13 | 90 | 4.8 | 6.4 | 0.00 | 0.71 | 0.03 | 99 | 1012.0 |
| 20260506011839 | 13 | 90 | 6.4 | 6.4 | 0.00 | 0.71 | 0.03 | 99 | 1012.1 |
| 20260506011739 | 13 | 90 | 6.4 | 6.4 | 0.00 | 0.71 | 0.03 | 99 | 1012.0 |
| 20260506011640 | 13 | 90 | 6.4 | 6.4 | 0.00 | 0.71 | 0.03 | 99 | 1011.8 |
| 20260506011441 | 13 | 90 | 6.4 | 8.0 | 0.00 | 0.71 | 0.03 | 99 | 1012.1 |
| 20260506010639 | 13 | 90 | 6.4 | 9.7 | 0.00 | 0.71 | 0.03 | 99 | 1011.9 |
| 20260506010539 | 13 | 90 | 6.4 | 6.4 | 0.00 | 0.71 | 0.03 | 99 | 1012.1 |
| 20260506010240 | 14 | 90 | 4.8 | 6.4 | 0.00 | 0.71 | 0.03 | 99 | 1012.1 |
| 20260506010040 | 14 | 90 | 4.8 | 6.4 | 0.00 | 0.71 | 0.03 | 99 | 1012.2 |
| 20260506005440 | 14 | 90 | 6.4 | 6.4 | 0.00 | 0.71 | 0.03 | 99 | 1012.3 |
| 20260506005340 | 14 | 90 | 6.4 | 6.4 | 0.00 | 0.71 | 0.03 | 99 | 1012.3 |
| 20260506005240 | 13 | 90 | 6.4 | 6.4 | 0.00 | 0.71 | 0.03 | 99 | 1012.3 |
| 20260506005140 | 13 | 68 | 6.4 | 6.4 | 0.00 | 0.71 | 0.03 | 99 | 1012.4 |
| 20260506004740 | 14 | 90 | 6.4 | 6.4 | 0.00 | 0.71 | 0.03 | 99 | 1012.4 |
| 20260506004639 | 13 | 90 | 6.4 | 8.0 | 0.00 | 0.71 | 0.03 | 99 | 1012.4 |
| 20260506004539 | 13 | 68 | 6.4 | 6.4 | 0.00 | 0.71 | 0.03 | 99 | 1012.3 |
| 20260506004439 | 13 | 90 | 6.4 | 6.4 | 0.00 | 0.71 | 0.03 | 99 | 1012.3 |
| 20260506004339 | 13 | 90 | 6.4 | 6.4 | 0.00 | 0.71 | 0.03 | 99 | 1012.1 |
| 20260506004239 | 13 | 90 | 6.4 | 6.4 | 0.00 | 0.71 | 0.03 | 99 | 1012.5 |
| 20260506004140 | 13 | 90 | 6.4 | 6.4 | 0.00 | 0.71 | 0.03 | 99 | 1012.6 |
| 20260506004040 | 13 | 90 | 4.8 | 6.4 | 0.00 | 0.71 | 0.03 | 99 | 1012.5 |
| 20260506003839 | 13 | 112 | 3.2 | 3.2 | 0.00 | 0.71 | 0.03 | 99 | 1012.5 |
| 20260506003739 | 13 | 112 | 3.2 | 4.8 | 0.00 | 0.71 | 0.03 | 99 | 1012.4 |
| 20260506003639 | 13 | 112 | 3.2 | 3.2 | 0.00 | 0.71 | 0.03 | 99 | 1012.3 |
| 20260506003539 | 13 | 112 | 3.2 | 4.8 | 0.00 | 0.71 | 0.03 | 99 | 1012.4 |
| 20260506003440 | 14 | 112 | 3.2 | 4.8 | 0.00 | 0.71 | 0.03 | 99 | 1012.6 |
| 20260506003240 | 14 | 112 | 4.8 | 6.4 | 0.00 | 0.71 | 0.03 | 99 | 1012.4 |
| 20260506003140 | 14 | 90 | 6.4 | 6.4 | 0.00 | 0.71 | 0.03 | 99 | 1012.2 |
| 20260506003040 | 14 | 112 | 6.4 | 6.4 | 0.00 | 0.71 | 0.03 | 99 | 1012.4 |
| 20260506002840 | 14 | 90 | 6.4 | 6.4 | 0.00 | 0.71 | 0.03 | 99 | 1012.4 |
| 20260506002540 | 14 | 90 | 6.4 | 6.4 | 0.00 | 0.71 | 0.03 | 99 | 1012.6 |
| 20260506002440 | 14 | 90 | 4.8 | 6.4 | 0.00 | 0.71 | 0.03 | 99 | 1012.5 |
| 20260506002239 | 13 | 68 | 4.8 | 6.4 | 0.00 | 0.71 | 0.03 | 99 | 1012.7 |
| 20260506002139 | 13 | 68 | 4.8 | 6.4 | 0.00 | 0.71 | 0.03 | 99 | 1012.7 |
| 20260506001740 | 13 | 90 | 4.8 | 6.4 | 0.00 | 0.71 | 0.03 | 99 | 1012.8 |
| 20260506001640 | 13 | 90 | 3.2 | 3.2 | 0.00 | 0.71 | 0.03 | 99 | 1012.6 |
| 20260506001439 | 13 | 90 | 3.2 | 3.2 | 0.00 | 0.71 | 0.03 | 99 | 1013.0 |
| 20260506001339 | 13 | 112 | 1.6 | 3.2 | 0.00 | 0.71 | 0.03 | 99 | 1012.7 |
| 20260506000640 | 14 | 112 | 3.2 | 4.8 | 0.00 | 0.71 | 0.03 | 99 | 1012.8 |
| 20260506000540 | 14 | 112 | 3.2 | 4.8 | 0.00 | 0.71 | 0.03 | 99 | 1012.8 |
| 20260506000439 | 14 | 112 | 3.2 | 4.8 | 0.00 | 0.71 | 0.03 | 99 | 1012.7 |
| 20260505235939 | 14 | 112 | 3.2 | 4.8 | 0.00 | 0.71 | 0.03 | 99 | 1013.1 |
| 20260505235639 | 13 | 90 | 3.2 | 4.8 | 0.00 | 0.71 | 0.03 | 99 | 1012.8 |
| 20260505235540 | 13 | 90 | 3.2 | 4.8 | 0.00 | 0.71 | 0.03 | 99 | 1012.8 |
| 20260505235440 | 14 | 68 | 4.8 | 4.8 | 0.00 | 0.71 | 0.03 | 99 | 1012.8 |
| 20260505235339 | 13 | 90 | 4.8 | 4.8 | 0.00 | 0.71 | 0.03 | 99 | 1012.8 |
| 20260505235239 | 13 | 90 | 4.8 | 6.4 | 0.00 | 0.71 | 0.03 | 99 | 1012.8 |
| 20260505235139 | 13 | 68 | 4.8 | 6.4 | 0.00 | 0.71 | 0.03 | 99 | 1012.7 |
| 20260505234740 | 14 | 90 | 4.8 | 6.4 | 0.00 | 0.71 | 0.03 | 99 | 1012.9 |
| 20260505234640 | 13 | 90 | 4.8 | 6.4 | 0.00 | 0.71 | 0.03 | 99 | 1012.8 |
| 20260505234340 | 13 | 90 | 6.4 | 6.4 | 0.00 | 0.71 | 0.03 | 99 | 1012.8 |
| 20260505234239 | 14 | 90 | 4.8 | 6.4 | 0.00 | 0.71 | 0.03 | 99 | 1012.9 |
| 20260505234040 | 14 | 90 | 4.8 | 6.4 | 0.00 | 0.71 | 0.03 | 99 | 1012.8 |
| 20260505233940 | 14 | 90 | 4.8 | 6.4 | 0.00 | 0.71 | 0.03 | 99 | 1012.7 |
| 20260505233740 | 14 | 90 | 4.8 | 6.4 | 0.00 | 0.71 | 0.03 | 99 | 1012.7 |
| 20260505233440 | 13 | 68 | 6.4 | 6.4 | 0.00 | 0.71 | 0.03 | 99 | 1012.8 |
| 20260505233340 | 14 | 90 | 6.4 | 6.4 | 0.00 | 0.71 | 0.03 | 99 | 1012.8 |
| 20260505232740 | 13 | 90 | 6.4 | 8.0 | 0.03 | 0.71 | 0.03 | 99 | 1012.8 |
| 20260505232639 | 13 | 68 | 6.4 | 9.7 | 0.03 | 0.71 | 0.03 | 99 | 1012.8 |
| 20260505232340 | 13 | 68 | 6.4 | 8.0 | 0.03 | 0.71 | 0.03 | 99 | 1012.8 |
| 20260505232240 | 13 | 68 | 6.4 | 8.0 | 0.03 | 0.71 | 0.03 | 99 | 1012.7 |
| 20260505232039 | 13 | 90 | 6.4 | 8.0 | 0.03 | 0.71 | 0.03 | 99 | 1012.9 |
| 20260505231940 | 14 | 90 | 6.4 | 8.0 | 0.03 | 0.71 | 0.03 | 99 | 1012.9 |
| 20260505231840 | 13 | 68 | 6.4 | 6.4 | 0.03 | 0.71 | 0.03 | 99 | 1013.1 |
| 20260505231539 | 13 | 90 | 6.4 | 8.0 | 0.03 | 0.71 | 0.03 | 99 | 1013.0 |
| 20260505231339 | 13 | 90 | 6.4 | 8.0 | 0.03 | 0.71 | 0.03 | 99 | 1012.9 |
| 20260505231239 | 13 | 68 | 6.4 | 6.4 | 0.03 | 0.71 | 0.03 | 99 | 1012.9 |
| 20260505231139 | 14 | 68 | 6.4 | 8.0 | 0.03 | 0.71 | 0.03 | 99 | 1012.8 |
| 20260505230940 | 13 | 68 | 6.4 | 6.4 | 0.03 | 0.71 | 0.03 | 99 | 1012.9 |
| 20260505230840 | 13 | 68 | 6.4 | 6.4 | 0.03 | 0.71 | 0.03 | 99 | 1012.6 |
| 20260505230540 | 13 | 90 | 6.4 | 6.4 | 0.03 | 0.71 | 0.03 | 99 | 1013.1 |
| 20260505230440 | 14 | 90 | 6.4 | 6.4 | 0.03 | 0.71 | 0.03 | 99 | 1013.0 |
| 20260505230340 | 14 | 90 | 6.4 | 6.4 | 0.03 | 0.71 | 0.03 | 99 | 1012.8 |
| 20260505230240 | 13 | 90 | 6.4 | 6.4 | 0.03 | 0.71 | 0.03 | 99 | 1012.8 |
| 20260505225939 | 13 | 90 | 6.4 | 6.4 | 0.03 | 0.71 | 0.03 | 99 | 1013.0 |
| 20260505225839 | 13 | 90 | 6.4 | 6.4 | 0.03 | 0.71 | 0.03 | 99 | 1013.1 |
| 20260505225340 | 13 | 90 | 4.8 | 6.4 | 0.03 | 0.71 | 0.03 | 99 | 1013.0 |
| 20260505225140 | 13 | 90 | 4.8 | 6.4 | 0.03 | 0.71 | 0.03 | 99 | 1013.2 |
| 20260505224940 | 13 | 90 | 4.8 | 6.4 | 0.03 | 0.71 | 0.03 | 99 | 1013.2 |
| 20260505224139 | 13 | 90 | 6.4 | 6.4 | 0.03 | 0.71 | 0.03 | 99 | 1013.0 |
| 20260505224039 | 13 | 90 | 4.8 | 6.4 | 0.03 | 0.71 | 0.03 | 99 | 1013.0 |
| 20260505223940 | 13 | 68 | 4.8 | 6.4 | 0.03 | 0.71 | 0.03 | 99 | 1013.0 |
| 20260505223840 | 13 | 90 | 4.8 | 4.8 | 0.03 | 0.71 | 0.03 | 99 | 1012.9 |
| 20260505223740 | 13 | 90 | 4.8 | 6.4 | 0.03 | 0.71 | 0.03 | 99 | 1013.2 |
| 20260505223540 | 13 | 90 | 4.8 | 6.4 | 0.03 | 0.71 | 0.03 | 99 | 1013.1 |
| 20260505223439 | 13 | 68 | 4.8 | 4.8 | 0.03 | 0.71 | 0.03 | 99 | 1013.5 |
| 20260505223339 | 13 | 90 | 4.8 | 6.4 | 0.03 | 0.71 | 0.03 | 99 | 1013.0 |
| 20260505223239 | 13 | 68 | 4.8 | 6.4 | 0.05 | 0.71 | 0.03 | 99 | 1013.2 |
| 20260505223139 | 13 | 68 | 4.8 | 6.4 | 0.05 | 0.71 | 0.03 | 99 | 1013.0 |
| 20260505222840 | 13 | 68 | 3.2 | 4.8 | 0.03 | 0.69 | 0.00 | 99 | 1013.1 |
| 20260505222639 | 13 | 68 | 4.8 | 4.8 | 0.03 | 0.69 | 0.00 | 99 | 1013.2 |
| 20260505222339 | 13 | 90 | 4.8 | 4.8 | 0.03 | 0.69 | 0.00 | 99 | 1013.5 |
| 20260505221539 | 13 | 68 | 4.8 | 8.0 | 0.10 | 0.69 | 0.00 | 99 | 1013.1 |
| 20260505221439 | 13 | 90 | 4.8 | 6.4 | 0.13 | 0.69 | 0.00 | 99 | 1013.2 |
| 20260505221240 | 13 | 90 | 3.2 | 4.8 | 0.18 | 0.69 | 0.00 | 99 | 1013.1 |
| 20260505221140 | 13 | 90 | 4.8 | 6.4 | 0.18 | 0.69 | 0.00 | 99 | 1013.3 |
| 20260505220740 | 13 | 90 | 3.2 | 3.2 | 0.18 | 0.69 | 0.00 | 99 | 1013.2 |
| 20260505220539 | 13 | 90 | 3.2 | 4.8 | 0.18 | 0.69 | 0.00 | 99 | 1013.3 |
| 20260505220340 | 13 | 90 | 3.2 | 4.8 | 0.18 | 0.69 | 0.00 | 99 | 1013.3 |
| 20260505220240 | 13 | 90 | 4.8 | 4.8 | 0.18 | 0.69 | 0.00 | 99 | 1013.5 |
| 20260505215839 | 13 | 90 | 3.2 | 4.8 | 0.18 | 0.69 | 0.69 | 99 | 1013.5 |
| 20260505215740 | 13 | 90 | 4.8 | 4.8 | 0.18 | 0.69 | 0.69 | 99 | 1013.6 |
| 20260505215640 | 13 | 68 | 3.2 | 4.8 | 0.18 | 0.69 | 0.69 | 99 | 1013.6 |
| 20260505215540 | 13 | 68 | 3.2 | 4.8 | 0.18 | 0.69 | 0.69 | 99 | 1013.5 |
| 20260505215440 | 13 | 68 | 4.8 | 4.8 | 0.18 | 0.69 | 0.69 | 99 | 1013.5 |
| 20260505215039 | 13 | 90 | 4.8 | 4.8 | 0.23 | 0.69 | 0.69 | 99 | 1013.5 |
| 20260505214939 | 13 | 68 | 4.8 | 6.4 | 0.28 | 0.69 | 0.69 | 99 | 1013.5 |
| 20260505214740 | 13 | 68 | 3.2 | 4.8 | 0.28 | 0.69 | 0.69 | 99 | 1013.6 |
| 20260505214540 | 13 | 68 | 3.2 | 3.2 | 0.36 | 0.69 | 0.69 | 99 | 1013.2 |
| 20260505214340 | 13 | 90 | 1.6 | 3.2 | 0.36 | 0.69 | 0.69 | 99 | 1013.7 |
| 20260505214040 | 13 | 90 | 1.6 | 3.2 | 0.36 | 0.69 | 0.69 | 99 | 1013.6 |
| 20260505213939 | 13 | 90 | 3.2 | 3.2 | 0.36 | 0.69 | 0.69 | 99 | 1013.5 |
| 20260505213439 | 13 | 90 | 3.2 | 4.8 | 0.36 | 0.69 | 0.69 | 99 | 1013.6 |
| 20260505213340 | 13 | 112 | 3.2 | 3.2 | 0.30 | 0.64 | 0.64 | 99 | 1013.7 |
| 20260505212539 | 13 | 112 | 1.6 | 1.6 | 0.30 | 0.64 | 0.64 | 99 | 1013.8 |
| 20260505212440 | 13 | 135 | 1.6 | 1.6 | 0.30 | 0.64 | 0.64 | 99 | 1013.9 |
| 20260505212340 | 13 | 135 | 0.0 | 1.6 | 0.30 | 0.64 | 0.64 | 99 | 1013.9 |
| 20260505212140 | 13 | 112 | 0.0 | 0.0 | 0.28 | 0.61 | 0.61 | 99 | 1014.1 |
| 20260505212040 | 13 | 112 | 0.0 | 1.6 | 0.28 | 0.61 | 0.61 | 99 | 1013.9 |
| 20260505211839 | 13 | 90 | 1.6 | 1.6 | 0.25 | 0.58 | 0.58 | 99 | 1013.7 |
| 20260505211340 | 13 | 158 | 0.0 | 1.6 | 0.18 | 0.51 | 0.51 | 99 | 1014.0 |
| 20260505211040 | 13 | 90 | 3.2 | 4.8 | 0.18 | 0.51 | 0.51 | 99 | 1013.9 |
| 20260505210939 | 13 | 90 | 4.8 | 4.8 | 0.18 | 0.51 | 0.51 | 99 | 1013.8 |
| 20260505210839 | 13 | 90 | 4.8 | 6.4 | 0.18 | 0.51 | 0.51 | 99 | 1013.9 |
| 20260505210740 | 13 | 90 | 4.8 | 4.8 | 0.18 | 0.51 | 0.51 | 99 | 1013.6 |
| 20260505210639 | 13 | 90 | 4.8 | 4.8 | 0.18 | 0.51 | 0.51 | 99 | 1013.8 |
| 20260505210540 | 13 | 90 | 3.2 | 6.4 | 0.18 | 0.51 | 0.51 | 99 | 1014.0 |
| 20260505210440 | 13 | 90 | 3.2 | 3.2 | 0.18 | 0.51 | 0.51 | 99 | 1013.8 |
| 20260505210240 | 13 | 112 | 3.2 | 4.8 | 0.18 | 0.51 | 0.51 | 98 | 1013.9 |
| 20260505210140 | 13 | 90 | 3.2 | 3.2 | 0.18 | 0.51 | 0.51 | 98 | 1014.0 |
| 20260505210039 | 13 | 90 | 3.2 | 3.2 | 0.18 | 0.51 | 0.51 | 98 | 1013.8 |
| 20260505205839 | 13 | 112 | 3.2 | 3.2 | 0.18 | 0.51 | 0.51 | 98 | 1014.0 |
| 20260505205740 | 13 | 135 | 1.6 | 1.6 | 0.18 | 0.51 | 0.51 | 98 | 1014.1 |
| 20260505205639 | 13 | 112 | 1.6 | 1.6 | 0.18 | 0.51 | 0.51 | 98 | 1014.0 |
| 20260505205239 | 14 | 90 | 1.6 | 3.2 | 0.13 | 0.46 | 0.46 | 98 | 1013.7 |
| 20260505205139 | 13 | 90 | 1.6 | 1.6 | 0.10 | 0.43 | 0.43 | 98 | 1013.9 |
| 20260505204940 | 13 | 90 | 3.2 | 3.2 | 0.05 | 0.38 | 0.38 | 98 | 1014.1 |
| 20260505204840 | 14 | 90 | 3.2 | 3.2 | 0.05 | 0.38 | 0.38 | 98 | 1014.0 |
| 20260505204640 | 14 | 112 | 3.2 | 3.2 | 0.00 | 0.30 | 0.30 | 98 | 1013.8 |
| 20260505204540 | 14 | 90 | 3.2 | 4.8 | 0.00 | 0.30 | 0.30 | 99 | 1013.9 |
| 20260505204339 | 14 | 90 | 3.2 | 3.2 | 0.00 | 0.30 | 0.30 | 99 | 1014.1 |
| 20260505204240 | 14 | 90 | 3.2 | 3.2 | 0.00 | 0.30 | 0.30 | 99 | 1013.9 |
| 20260505204140 | 14 | 68 | 3.2 | 3.2 | 0.00 | 0.30 | 0.30 | 97 | 1014.0 |
| 20260505204040 | 14 | 90 | 3.2 | 4.8 | 0.00 | 0.30 | 0.30 | 96 | 1013.9 |
| 20260505203739 | 14 | 90 | 3.2 | 3.2 | 0.00 | 0.30 | 0.30 | 99 | 1013.9 |
| 20260505203539 | 14 | 90 | 3.2 | 4.8 | 0.00 | 0.30 | 0.30 | 98 | 1013.8 |
| 20260505203439 | 14 | 90 | 3.2 | 4.8 | 0.00 | 0.30 | 0.30 | 98 | 1013.9 |
| 20260505203240 | 14 | 90 | 4.8 | 4.8 | 0.00 | 0.30 | 0.30 | 98 | 1013.8 |
| 20260505203039 | 14 | 90 | 4.8 | 4.8 | 0.00 | 0.30 | 0.30 | 98 | 1014.0 |
| 20260505202940 | 14 | 90 | 4.8 | 6.4 | 0.00 | 0.30 | 0.30 | 98 | 1014.0 |
| 20260505202540 | 14 | 90 | 3.2 | 4.8 | 0.00 | 0.30 | 0.30 | 98 | 1013.8 |
| 20260505202339 | 14 | 90 | 4.8 | 6.4 | 0.00 | 0.30 | 0.30 | 98 | 1013.8 |
| 20260505202139 | 14 | 90 | 4.8 | 6.4 | 0.00 | 0.30 | 0.30 | 98 | 1013.8 |
| 20260505201939 | 14 | 112 | 4.8 | 6.4 | 0.00 | 0.30 | 0.30 | 98 | 1014.0 |
| 20260505201740 | 14 | 90 | 4.8 | 6.4 | 0.00 | 0.30 | 0.30 | 98 | 1013.8 |
| 20260505201640 | 14 | 90 | 4.8 | 6.4 | 0.00 | 0.30 | 0.30 | 98 | 1013.8 |
| 20260505201339 | 14 | 90 | 6.4 | 8.0 | 0.00 | 0.30 | 0.30 | 98 | 1014.1 |
| 20260505201040 | 14 | 90 | 4.8 | 6.4 | 0.00 | 0.30 | 0.30 | 98 | 1014.0 |
| 20260505200940 | 14 | 112 | 4.8 | 6.4 | 0.00 | 0.30 | 0.30 | 98 | 1014.0 |
| 20260505200539 | 14 | 90 | 4.8 | 6.4 | 0.00 | 0.30 | 0.30 | 98 | 1013.8 |
| 20260505200340 | 14 | 90 | 4.8 | 6.4 | 0.00 | 0.30 | 0.30 | 98 | 1014.0 |
| 20260505200140 | 14 | 90 | 4.8 | 6.4 | 0.00 | 0.30 | 0.30 | 98 | 1013.8 |
| 20260505200040 | 14 | 90 | 4.8 | 4.8 | 0.00 | 0.30 | 0.30 | 98 | 1013.8 |
| 20260505195940 | 14 | 90 | 4.8 | 6.4 | 0.00 | 0.30 | 0.30 | 98 | 1013.9 |
| 20260505195739 | 14 | 90 | 4.8 | 4.8 | 0.00 | 0.30 | 0.30 | 98 | 1013.9 |
| 20260505195639 | 14 | 90 | 4.8 | 4.8 | 0.00 | 0.30 | 0.30 | 98 | 1013.9 |
| 20260505195539 | 13 | 90 | 4.8 | 6.4 | 0.00 | 0.30 | 0.30 | 98 | 1013.8 |
| 20260505195439 | 13 | 90 | 4.8 | 6.4 | 0.00 | 0.30 | 0.30 | 98 | 1013.8 |
| 20260505194940 | 14 | 90 | 3.2 | 4.8 | 0.00 | 0.30 | 0.30 | 98 | 1013.8 |
| 20260505194839 | 14 | 90 | 3.2 | 4.8 | 0.00 | 0.30 | 0.30 | 98 | 1013.9 |
| 20260505194539 | 14 | 90 | 3.2 | 4.8 | 0.00 | 0.30 | 0.30 | 98 | 1013.7 |
| 20260505194440 | 14 | 90 | 3.2 | 3.2 | 0.00 | 0.30 | 0.30 | 98 | 1013.8 |
| 20260505194340 | 14 | 112 | 3.2 | 4.8 | 0.00 | 0.30 | 0.30 | 98 | 1013.9 |
| 20260505194239 | 14 | 90 | 4.8 | 6.4 | 0.00 | 0.30 | 0.30 | 98 | 1013.9 |
| 20260505194140 | 14 | 112 | 3.2 | 3.2 | 0.00 | 0.30 | 0.30 | 98 | 1013.8 |
| 20260505193940 | 14 | 68 | 3.2 | 4.8 | 0.00 | 0.30 | 0.30 | 98 | 1013.9 |
| 20260505193840 | 13 | 68 | 4.8 | 6.4 | 0.00 | 0.30 | 0.30 | 98 | 1013.9 |
| 20260505193740 | 14 | 68 | 4.8 | 4.8 | 0.00 | 0.30 | 0.30 | 98 | 1013.6 |
| 20260505193640 | 14 | 68 | 4.8 | 6.4 | 0.00 | 0.30 | 0.30 | 98 | 1013.8 |
| 20260505193440 | 14 | 90 | 4.8 | 6.4 | 0.00 | 0.30 | 0.30 | 98 | 1013.8 |
| 20260505193039 | 14 | 90 | 6.4 | 6.4 | 0.00 | 0.30 | 0.30 | 98 | 1013.7 |
| 20260505192639 | 14 | 90 | 4.8 | 4.8 | 0.00 | 0.30 | 0.30 | 98 | 1013.7 |
| 20260505192540 | 14 | 68 | 3.2 | 4.8 | 0.00 | 0.30 | 0.30 | 98 | 1013.8 |
| 20260505192139 | 14 | 90 | 3.2 | 3.2 | 0.00 | 0.30 | 0.30 | 98 | 1013.8 |
| 20260505191939 | 14 | 90 | 3.2 | 3.2 | 0.00 | 0.30 | 0.30 | 98 | 1013.7 |
| 20260505191839 | 14 | 90 | 3.2 | 4.8 | 0.00 | 0.30 | 0.30 | 98 | 1013.8 |
| 20260505191739 | 14 | 90 | 3.2 | 4.8 | 0.00 | 0.30 | 0.30 | 98 | 1013.9 |
| 20260505191440 | 14 | 112 | 3.2 | 3.2 | 0.00 | 0.30 | 0.30 | 98 | 1013.9 |
| 20260505191340 | 13 | 90 | 3.2 | 3.2 | 0.00 | 0.30 | 0.30 | 98 | 1013.8 |
| 20260505191140 | 13 | 90 | 3.2 | 3.2 | 0.00 | 0.30 | 0.30 | 98 | 1013.7 |
| 20260505190840 | 14 | 90 | 3.2 | 3.2 | 0.00 | 0.30 | 0.30 | 98 | 1013.8 |
| 20260505190740 | 14 | 90 | 3.2 | 3.2 | 0.00 | 0.30 | 0.30 | 98 | 1013.8 |
| 20260505190440 | 14 | 90 | 3.2 | 3.2 | 0.00 | 0.30 | 0.30 | 98 | 1013.7 |
| 20260505185839 | 14 | 90 | 3.2 | 4.8 | 0.00 | 0.30 | 0.30 | 98 | 1013.6 |
| 20260505185340 | 13 | 90 | 3.2 | 3.2 | 0.00 | 0.30 | 0.30 | 98 | 1013.6 |
| 20260505185240 | 13 | 68 | 3.2 | 4.8 | 0.00 | 0.30 | 0.30 | 98 | 1013.6 |
| 20260505185039 | 14 | 90 | 3.2 | 4.8 | 0.00 | 0.30 | 0.30 | 98 | 1013.6 |
| 20260505184640 | 14 | 90 | 3.2 | 4.8 | 0.00 | 0.30 | 0.30 | 98 | 1013.7 |
| 20260505184340 | 14 | 68 | 3.2 | 3.2 | 0.00 | 0.30 | 0.30 | 98 | 1013.6 |
| 20260505184239 | 14 | 68 | 3.2 | 3.2 | 0.00 | 0.30 | 0.30 | 98 | 1013.8 |
| 20260505184140 | 14 | 90 | 3.2 | 4.8 | 0.00 | 0.30 | 0.30 | 98 | 1013.7 |
| 20260505183839 | 14 | 90 | 4.8 | 4.8 | 0.00 | 0.30 | 0.30 | 98 | 1013.3 |
| 20260505183440 | 14 | 68 | 1.6 | 1.6 | 0.00 | 0.30 | 0.30 | 98 | 1013.6 |
| 20260505183340 | 14 | 45 | 1.6 | 3.2 | 0.00 | 0.30 | 0.30 | 98 | 1013.7 |
| 20260505183040 | 14 | 90 | 1.6 | 3.2 | 0.00 | 0.30 | 0.30 | 98 | 1013.5 |
| 20260505182539 | 14 | 68 | 1.6 | 3.2 | 0.00 | 0.30 | 0.30 | 98 | 1014.0 |
| 20260505182340 | 14 | 90 | 1.6 | 3.2 | 0.00 | 0.30 | 0.30 | 98 | 1013.6 |
| 20260505182140 | 14 | 90 | 1.6 | 3.2 | 0.00 | 0.30 | 0.30 | 98 | 1013.3 |
| 20260505181940 | 14 | 90 | 1.6 | 1.6 | 0.00 | 0.30 | 0.30 | 98 | 1013.5 |
| 20260505181439 | 13 | 45 | 1.6 | 1.6 | 0.00 | 0.30 | 0.30 | 98 | 1013.3 |
| 20260505181339 | 13 | 68 | 1.6 | 1.6 | 0.00 | 0.30 | 0.30 | 98 | 1013.7 |
| 20260505181239 | 13 | 68 | 1.6 | 1.6 | 0.00 | 0.30 | 0.30 | 98 | 1013.5 |
| 20260505181139 | 13 | 45 | 1.6 | 1.6 | 0.00 | 0.30 | 0.30 | 98 | 1013.6 |
| 20260505180939 | 14 | 68 | 1.6 | 1.6 | 0.00 | 0.30 | 0.30 | 98 | 1013.5 |
| 20260505180740 | 14 | 45 | 1.6 | 3.2 | 0.00 | 0.30 | 0.30 | 98 | 1013.3 |
| 20260505180639 | 14 | 45 | 3.2 | 3.2 | 0.00 | 0.30 | 0.30 | 98 | 1013.7 |
| 20260505180539 | 13 | 68 | 3.2 | 3.2 | 0.00 | 0.30 | 0.30 | 98 | 1013.3 |
| 20260505180339 | 14 | 68 | 3.2 | 3.2 | 0.00 | 0.30 | 0.30 | 98 | 1013.5 |
| 20260505175940 | 13 | 68 | 3.2 | 3.2 | 0.00 | 0.30 | 0.30 | 98 | 1013.3 |
| 20260505175840 | 13 | 68 | 3.2 | 3.2 | 0.00 | 0.30 | 0.30 | 98 | 1013.6 |
| 20260505175639 | 13 | 68 | 1.6 | 3.2 | 0.00 | 0.30 | 0.30 | 98 | 1013.6 |
| 20260505175440 | 13 | 90 | 1.6 | 3.2 | 0.00 | 0.30 | 0.30 | 98 | 1013.3 |
| 20260505175340 | 13 | 135 | 0.0 | 1.6 | 0.00 | 0.30 | 0.30 | 98 | 1013.5 |
| 20260505175239 | 13 | 135 | 0.0 | 1.6 | 0.00 | 0.30 | 0.30 | 98 | 1013.5 |
| 20260505175140 | 13 | 90 | 1.6 | 3.2 | 0.00 | 0.30 | 0.30 | 98 | 1013.6 |
| 20260505174840 | 13 | 135 | 1.6 | 1.6 | 0.00 | 0.30 | 0.30 | 98 | 1013.7 |
| 20260505174740 | 13 | 135 | 1.6 | 1.6 | 0.00 | 0.30 | 0.30 | 98 | 1013.6 |
| 20260505174440 | 13 | 90 | 3.2 | 3.2 | 0.00 | 0.30 | 0.30 | 98 | 1013.5 |
| 20260505174139 | 13 | 112 | 3.2 | 3.2 | 0.00 | 0.30 | 0.30 | 98 | 1013.6 |
| 20260505174039 | 13 | 112 | 3.2 | 3.2 | 0.00 | 0.30 | 0.30 | 98 | 1013.3 |
| 20260505173840 | 13 | 112 | 3.2 | 3.2 | 0.00 | 0.30 | 0.30 | 98 | 1013.5 |
| 20260505173739 | 13 | 112 | 3.2 | 3.2 | 0.00 | 0.30 | 0.30 | 98 | 1013.3 |
| 20260505173640 | 13 | 90 | 3.2 | 3.2 | 0.00 | 0.30 | 0.30 | 98 | 1013.2 |
| 20260505173240 | 13 | 90 | 4.8 | 6.4 | 0.00 | 0.30 | 0.30 | 98 | 1013.5 |
| 20260505173140 | 13 | 90 | 4.8 | 4.8 | 0.00 | 0.30 | 0.30 | 98 | 1013.5 |
| 20260505172739 | 13 | 90 | 4.8 | 6.4 | 0.00 | 0.30 | 0.30 | 98 | 1013.5 |
| 20260505172639 | 14 | 90 | 4.8 | 6.4 | 0.00 | 0.30 | 0.30 | 98 | 1013.3 |
| 20260505172539 | 13 | 68 | 4.8 | 6.4 | 0.00 | 0.30 | 0.30 | 98 | 1013.3 |
| 20260505172439 | 13 | 68 | 4.8 | 6.4 | 0.00 | 0.30 | 0.30 | 98 | 1013.3 |
| 20260505172240 | 13 | 68 | 4.8 | 6.4 | 0.00 | 0.30 | 0.30 | 98 | 1013.5 |
| 20260505171839 | 13 | 68 | 4.8 | 6.4 | 0.00 | 0.30 | 0.30 | 98 | 1013.5 |
| 20260505171540 | 13 | 68 | 3.2 | 4.8 | 0.00 | 0.30 | 0.30 | 98 | 1013.2 |
| 20260505171440 | 13 | 68 | 4.8 | 6.4 | 0.00 | 0.30 | 0.30 | 98 | 1013.3 |
| 20260505171340 | 13 | 68 | 4.8 | 6.4 | 0.00 | 0.30 | 0.30 | 97 | 1013.5 |
| 20260505171040 | 13 | 68 | 4.8 | 6.4 | 0.00 | 0.30 | 0.30 | 97 | 1013.5 |
| 20260505170740 | 13 | 90 | 4.8 | 4.8 | 0.00 | 0.30 | 0.30 | 98 | 1013.3 |
| 20260505170639 | 13 | 68 | 4.8 | 6.4 | 0.00 | 0.30 | 0.30 | 98 | 1013.3 |
| 20260505170539 | 13 | 90 | 3.2 | 4.8 | 0.00 | 0.30 | 0.30 | 98 | 1013.6 |
| 20260505170340 | 13 | 90 | 4.8 | 6.4 | 0.00 | 0.30 | 0.30 | 98 | 1013.5 |
| 20260505170140 | 13 | 90 | 3.2 | 4.8 | 0.00 | 0.30 | 0.30 | 98 | 1013.5 |
| 20260505165839 | 13 | 90 | 4.8 | 6.4 | 0.00 | 0.30 | 0.30 | 98 | 1013.5 |
| 20260505165540 | 13 | 90 | 4.8 | 6.4 | 0.00 | 0.30 | 0.30 | 98 | 1013.6 |
| 20260505165340 | 13 | 90 | 4.8 | 4.8 | 0.00 | 0.30 | 0.30 | 98 | 1013.5 |
| 20260505165239 | 13 | 90 | 4.8 | 4.8 | 0.00 | 0.30 | 0.30 | 98 | 1013.3 |
| 20260505165140 | 13 | 90 | 4.8 | 4.8 | 0.00 | 0.30 | 0.30 | 98 | 1013.5 |
| 20260505164940 | 13 | 90 | 4.8 | 6.4 | 0.00 | 0.30 | 0.30 | 98 | 1013.2 |
| 20260505164640 | 13 | 68 | 3.2 | 4.8 | 0.00 | 0.30 | 0.30 | 98 | 1013.6 |
| 20260505164540 | 13 | 68 | 3.2 | 4.8 | 0.00 | 0.30 | 0.30 | 98 | 1013.5 |
| 20260505164240 | 13 | 90 | 3.2 | 3.2 | 0.00 | 0.30 | 0.30 | 98 | 1013.5 |
| 20260505164140 | 13 | 68 | 3.2 | 3.2 | 0.00 | 0.30 | 0.30 | 98 | 1013.7 |
| 20260505163840 | 13 | 90 | 3.2 | 4.8 | 0.00 | 0.30 | 0.30 | 98 | 1013.6 |
| 20260505163740 | 13 | 90 | 3.2 | 4.8 | 0.00 | 0.30 | 0.30 | 98 | 1013.8 |
| 20260505163440 | 13 | 68 | 3.2 | 4.8 | 0.00 | 0.30 | 0.30 | 98 | 1013.5 |
| 20260505163339 | 13 | 45 | 4.8 | 4.8 | 0.00 | 0.30 | 0.30 | 98 | 1013.8 |
| 20260505163240 | 13 | 68 | 4.8 | 6.4 | 0.00 | 0.30 | 0.30 | 98 | 1013.5 |
| 20260505163040 | 13 | 68 | 4.8 | 4.8 | 0.00 | 0.30 | 0.30 | 98 | 1013.5 |
| 20260505162940 | 13 | 68 | 4.8 | 6.4 | 0.00 | 0.30 | 0.30 | 98 | 1013.7 |
| 20260505162740 | 13 | 68 | 3.2 | 4.8 | 0.00 | 0.30 | 0.30 | 98 | 1013.7 |
| 20260505162640 | 13 | 68 | 3.2 | 4.8 | 0.00 | 0.30 | 0.30 | 99 | 1014.0 |
| 20260505162540 | 13 | 90 | 4.8 | 6.4 | 0.00 | 0.30 | 0.30 | 98 | 1013.9 |
| 20260505162339 | 13 | 90 | 4.8 | 4.8 | 0.00 | 0.30 | 0.30 | 98 | 1013.7 |
| 20260505161939 | 13 | 90 | 4.8 | 4.8 | 0.00 | 0.30 | 0.30 | 99 | 1013.5 |
| 20260505161740 | 13 | 90 | 4.8 | 6.4 | 0.00 | 0.30 | 0.30 | 99 | 1013.9 |
| 20260505161640 | 13 | 68 | 3.2 | 4.8 | 0.00 | 0.30 | 0.30 | 99 | 1013.7 |
| 20260505161540 | 13 | 90 | 4.8 | 4.8 | 0.00 | 0.30 | 0.30 | 99 | 1013.9 |
| 20260505161439 | 13 | 90 | 3.2 | 4.8 | 0.00 | 0.30 | 0.30 | 99 | 1013.7 |
| 20260505161339 | 13 | 68 | 4.8 | 4.8 | 0.00 | 0.30 | 0.30 | 99 | 1013.7 |
| 20260505161240 | 13 | 90 | 3.2 | 4.8 | 0.00 | 0.30 | 0.30 | 99 | 1013.9 |
| 20260505161140 | 13 | 90 | 4.8 | 6.4 | 0.00 | 0.30 | 0.30 | 99 | 1013.7 |
| 20260505160840 | 13 | 68 | 4.8 | 6.4 | 0.00 | 0.30 | 0.30 | 99 | 1013.8 |
| 20260505160239 | 13 | 68 | 3.2 | 4.8 | 0.00 | 0.30 | 0.30 | 99 | 1013.6 |
| 20260505153339 | 13 | 68 | 1.6 | 1.6 | 0.05 | 0.30 | 0.30 | 99 | 1014.0 |
| 20260505153239 | 13 | 68 | 1.6 | 3.2 | 0.05 | 0.30 | 0.30 | 99 | 1014.0 |
| 20260505153139 | 13 | 45 | 1.6 | 1.6 | 0.05 | 0.30 | 0.30 | 99 | 1013.9 |
| 20260505152440 | 13 | 68 | 1.6 | 1.6 | 0.05 | 0.30 | 0.30 | 99 | 1013.7 |
| 20260505152340 | 13 | 45 | 1.6 | 1.6 | 0.05 | 0.30 | 0.30 | 99 | 1014.1 |
| 20260505152240 | 13 | 22 | 1.6 | 1.6 | 0.05 | 0.30 | 0.30 | 99 | 1014.0 |
| 20260505152140 | 13 | 22 | 1.6 | 1.6 | 0.08 | 0.30 | 0.30 | 99 | 1014.2 |
| 20260505151940 | 13 | 45 | 1.6 | 1.6 | 0.08 | 0.30 | 0.30 | 99 | 1014.0 |
| 20260505151840 | 13 | 0 | 0.0 | 1.6 | 0.08 | 0.30 | 0.30 | 99 | 1014.1 |
| 20260505151740 | 13 | 338 | 0.0 | 1.6 | 0.08 | 0.30 | 0.30 | 99 | 1014.1 |
| 20260505151340 | 13 | 338 | 0.0 | 1.6 | 0.08 | 0.30 | 0.30 | 99 | 1014.1 |
| 20260505151139 | 13 | 315 | 1.6 | 1.6 | 0.08 | 0.30 | 0.30 | 99 | 1014.1 |
| 20260505151039 | 13 | 315 | 0.0 | 1.6 | 0.08 | 0.30 | 0.30 | 99 | 1014.1 |
| 20260505150739 | 13 | 338 | 0.0 | 1.6 | 0.08 | 0.30 | 0.30 | 99 | 1014.1 |
| 20260505150540 | 13 | 0 | 0.0 | 0.0 | 0.08 | 0.30 | 0.30 | 99 | 1014.2 |
| 20260505150439 | 13 | 0 | 0.0 | 0.0 | 0.08 | 0.30 | 0.30 | 99 | 1013.9 |
| 20260505150239 | 13 | 338 | 0.0 | 1.6 | 0.08 | 0.30 | 0.30 | 99 | 1014.2 |
| 20260505140440 | 13 | 0 | 0.0 | 1.6 | 0.00 | 0.23 | 0.23 | 99 | 1014.1 |
| 20260505140340 | 13 | 0 | 0.0 | 1.6 | 0.00 | 0.23 | 0.23 | 99 | 1014.1 |
| 20260505140140 | 13 | 315 | 0.0 | 1.6 | 0.00 | 0.23 | 0.23 | 99 | 1014.1 |
| 20260505130240 | 13 | 270 | 0.0 | 1.6 | 0.08 | 0.23 | 0.23 | 99 | 1014.2 |
| 20260505130140 | 13 | 292 | 1.6 | 1.6 | 0.08 | 0.23 | 0.23 | 99 | 1014.4 |
| 20260505124640 | 13 | 292 | 0.0 | 1.6 | 0.08 | 0.20 | 0.20 | 99 | 1014.0 |